Вернуться в каталог

STARLINK-2738

АктивенСвязьVLEO
NORAD 48668·PAYLOAD·🇺🇸 United States

Запущен May 26, 2021 с Cape Canaveral Space Force Station

Loading…

Ближайшие Пролёты (ближайшие 24 часа)

TLE

СвежийSource: CelesTrak SupGP

Эпоха: Sep 15, 2026, 01:31 UTC

1 48668C 21044AG  26258.06368056  .00037689  00000+0  12122-2 0  2580
2 48668  53.1590 302.6466 0001189  78.9942  32.9350 15.31676603    13

Отслеживайте STARLINK-2738 в реальном времени с AllMySat

Download on the App Store